W5CGC Weather Reports


Display with metric or nautical units.
time (UTC)temp
F
wind
direction
speed
MPH
gust
MPH
rain 1hr
in
rain 24hr
in
rain mn
in
humidity
%
barometer
mb
20200922110033 66 179 0.0 0.0 0.00 0.00 0.00 90 1016.3
20200922104600 66 179 0.0 0.0 0.00 0.00 0.00 90 1016.4
20200922103138 67 179 0.0 0.0 0.00 0.00 0.00 90 1016.4
20200922101532 67 179 0.0 0.0 0.00 0.00 0.00 90 1016.4
20200922100053 67 179 0.0 0.0 0.00 0.00 0.00 90 1016.4
20200922094625 66 179 0.0 0.0 0.00 0.00 0.00 90 1016.4
20200922093037 66 179 0.0 0.0 0.00 0.00 0.00 90 1016.3
20200922091556 66 179 0.0 0.0 0.00 0.00 0.00 89 1016.4
20200922090023 66 180 0.0 0.0 0.00 0.00 0.00 89 1016.6
20200922084532 66 180 0.0 0.0 0.00 0.00 0.00 90 1016.6
20200922083016 66 180 0.0 0.0 0.00 0.00 0.00 90 1016.7
20200922081514 66 180 0.0 0.0 0.00 0.00 0.00 89 1016.7
20200922080035 66 180 0.0 0.0 0.00 0.00 0.00 89 1016.8
20200922074519 66 182 0.0 0.0 0.00 0.00 0.00 89 1017.0
20200922073020 66 182 0.0 0.0 0.00 0.00 0.00 89 1017.1
20200922071525 66 182 0.0 0.0 0.00 0.00 0.00 89 1017.2
20200922070011 66 183 0.0 0.0 0.00 0.00 0.00 89 1017.3
20200922064501 66 183 0.0 0.0 0.00 0.00 0.00 89 1017.4
20200922063225 66 183 0.0 0.0 0.00 0.00 0.00 89 1017.6
20200922061654 66 183 0.0 0.0 0.00 0.00 0.00 89 1017.6
20200922060141 66 183 0.0 0.0 0.00 0.00 0.00 89 1017.6
20200922054811 66 183 0.0 0.0 0.00 0.00 0.00 89 1017.5
20200922053100 66 183 0.0 0.0 0.00 0.00 0.00 89 1017.7
20200922051752 66 183 0.0 0.0 0.00 0.00 0.00 89 1017.9
20200922050157 66 183 0.0 0.0 0.00 0.00 0.00 89 1018.0
20200922044614 66 183 0.0 0.0 0.00 0.00 0.00 89 1018.0
20200922043135 66 183 0.0 0.0 0.00 0.00 0.00 89 1018.0
20200922041611 66 183 0.0 0.0 0.00 0.00 0.00 89 1017.9
20200922040100 66 183 0.0 0.0 0.00 0.00 0.00 89 1017.8
20200922034633 66 183 0.0 0.0 0.00 0.00 0.00 89 1017.8
20200922033141 66 183 0.0 0.0 0.00 0.00 0.00 89 1017.7
20200922031608 66 183 0.0 0.0 0.00 0.00 0.00 88 1017.6
20200922030155 66 183 0.0 0.0 0.00 0.00 0.00 88 1017.6
20200922024629 66 183 0.0 0.0 0.00 0.00 0.00 88 1017.6
20200922023201 66 183 0.0 0.0 0.00 0.00 0.00 88 1017.6
20200922021638 67 183 0.0 0.0 0.00 0.00 0.00 88 1017.6
20200922020107 66 183 0.0 0.0 0.00 0.00 0.00 88 1017.5
20200922014617 67 183 0.0 0.0 0.00 0.00 0.00 88 1017.4
20200922013128 67 183 0.0 0.0 0.00 0.00 0.00 88 1017.3
20200922011553 67 183 0.0 0.0 0.00 0.00 0.00 87 1017.4
20200922010125 67 184 0.0 0.0 0.00 0.00 0.00 86 1017.4
20200922004559 67 184 0.0 0.0 0.00 0.00 0.00 83 1017.3
20200922003038 68 184 0.0 0.0 0.00 0.00 0.00 83 1017.4
20200922001531 68 185 0.0 0.0 0.00 0.00 0.00 78 1017.4
20200922000039 68 185 0.0 0.0 0.00 0.00 0.00 76 1017.5
20200921234605 69 185 0.0 0.0 0.00 0.00 0.00 74 1017.6
20200921233052 69 185 0.0 0.0 0.00 0.00 0.00 73 1017.6
20200921231555 70 185 0.0 0.0 0.00 0.00 0.00 71 1017.5
20200921230140 70 185 0.0 0.0 0.00 0.00 0.00 70 1017.5
20200921224531 71 185 0.0 0.0 0.00 0.00 0.00 68 1017.4
20200921223051 72 185 0.0 0.0 0.00 0.00 0.00 67 1017.3
20200921221532 73 185 0.0 0.0 0.00 0.00 0.00 66 1017.2
20200921220047 74 185 0.0 0.0 0.00 0.00 0.00 64 1017.0
20200921214538 74 186 0.0 0.0 0.00 0.00 0.00 63 1017.0
20200921213049 75 186 0.0 0.0 0.00 0.00 0.00 63 1017.1
20200921211546 76 186 0.0 0.0 0.00 0.00 0.00 61 1017.1
20200921210048 77 186 0.0 0.0 0.00 0.00 0.00 62 1017.1
20200921204551 76 186 0.0 0.0 0.00 0.00 0.00 64 1017.1
20200921203030 75 186 0.0 3.0 0.00 0.00 0.00 64 1017.2
20200921201623 74 326 1.0 5.0 0.00 0.00 0.00 63 1017.2
20200921200024 75 66 1.0 5.0 0.00 0.00 0.00 62 1017.3
20200921194555 75 63 2.0 7.0 0.00 0.00 0.00 61 1017.5
20200921193025 75 297 2.0 5.0 0.00 0.00 0.00 61 1017.7
20200921191519 76 47 1.0 5.0 0.00 0.00 0.00 60 1017.8
20200921190022 76 57 1.0 8.0 0.00 0.00 0.00 61 1018.0
20200921184521 76 41 2.0 6.0 0.00 0.00 0.00 60 1018.2
20200921183032 76 88 2.0 6.0 0.00 0.00 0.00 59 1018.4
20200921181540 76 39 1.0 4.0 0.00 0.00 0.00 59 1018.5
20200921180035 76 58 2.0 5.0 0.00 0.00 0.00 59 1018.7
20200921174518 76 36 2.0 5.0 0.00 0.00 0.00 59 1019.0
20200921173008 76 299 2.0 7.0 0.00 0.00 0.00 58 1019.1
20200921171756 76 7 1.0 4.0 0.00 0.00 0.00 59 1019.2
20200921170308 75 20 2.0 4.0 0.00 0.00 0.00 59 1019.4
20200921164858 75 75 1.0 4.0 0.00 0.00 0.00 58 1019.5
20200921163313 75 94 2.0 5.0 0.00 0.00 0.00 57 1019.7
20200921161711 74 16 2.0 4.0 0.00 0.00 0.00 59 1019.9
20200921160144 74 91 1.0 6.0 0.00 0.00 0.00 58 1019.9
20200921154620 73 79 0.0 3.0 0.00 0.00 0.00 59 1019.8
20200921153111 72 58 0.0 3.0 0.00 0.00 0.00 59 1019.6
20200921151623 72 70 0.0 3.0 0.00 0.00 0.00 60 1019.6
20200921150228 71 247 1.0 4.0 0.00 0.00 0.00 62 1019.5
20200921144652 70 79 1.0 4.0 0.00 0.00 0.00 64 1019.5
20200921143211 68 292 0.0 1.0 0.00 0.00 0.00 66 1019.4
20200921141618 68 288 0.0 2.0 0.00 0.00 0.00 67 1019.4
20200921140052 67 176 0.0 2.0 0.00 0.00 0.00 68 1019.3
20200921134549 66 277 0.0 3.0 0.00 0.00 0.00 68 1019.3
20200921133105 66 306 0.0 2.0 0.00 0.00 0.00 69 1019.3
20200921131559 65 331 0.0 1.0 0.00 0.00 0.00 70 1019.3
20200921130056 65 23 0.0 2.0 0.00 0.00 0.00 70 1019.2
20200921124623 65 337 0.0 1.0 0.00 0.00 0.00 69 1019.2
20200921123049 66 325 0.0 1.0 0.00 0.00 0.00 69 1019.1
20200921121658 66 322 0.0 1.0 0.00 0.00 0.00 68 1019.0
20200921120053 67 275 0.0 2.0 0.00 0.00 0.00 67 1018.9
20200921114605 66 283 0.0 1.0 0.00 0.00 0.00 68 1018.7
20200921113057 66 311 0.0 1.0 0.00 0.00 0.00 68 1018.6
20200921111804 66 304 0.0 2.0 0.00 0.00 0.00 68 1018.6